STARLINK-2742, 48688

Orbit data source: Space-Track

STARLINK-2742, 48688 is a payload satellite owned by SpaceX/Seattle (US) in LEO that was launched on Wed, 26 May 2021 UTC via an FALCON 9 launch vehicle from the Air Force Eastern Test Range (AFETR). Payload-class satellites include a variety of spacecraft equipped with specific instruments for various scientific and technological missions. These include communications satellites like Starlink; space stations such as the ISS; scientific satellites like the Hubble; Earth observation satellites from companies like Planet Labs, Umbra, and HawkEye 360; GPS; miniature CubeSats for education and research; and military/defense satellites.

Loading next visibility...
Identifier
48688, 2021-044BC
Orbit
LEO
Country
Flag of USUS
Related business
Manufacturer
SpaceX/Seattle
Mission
Operational Commercial Communications
Bus & Motor
STARLINK, Unknown motor
Mass
260 kg wet, ~248 kg dry
Launch date (UTC)
2021-05-26 (5 years ago)
Launch vehicle
FALCON 9
Launch site
Air Force Eastern Test Range (AFETR)
Object type
Payload
Rocket body
Debris
Shape & HBR
Box + 1 Pan, 10.1 m
Radar Cross Section
13.562 m², Large (>1 m²)

Expand to show TLE details & history
Last TLE update: 2 days ago

TLE from 2 days ago
0 STARLINK-2742
1 48688U 21044BC  26171.40893937  .00003145  00000-0  11299-3 0  9993
2 48688  53.1595 307.3148 0000882  84.3003 275.8098 15.31715324280232
Epoch: 2026-06-20T09:48Z
TLE epoch observation values (Epoch: 2026-06-20T09:48:52.361Z)
Latitude
-0.0001°
Longitude
-108.52743°
Altitude
471.533 km
Speed
7.632 km/s
True Right ascension
20h 29m 15s
True Declination
0° 00' 00"
Sunlit
Object was in full shadow at epoch
Visualization orbit readout
Latitude
Unknown
Longitude
Unknown
Altitude
Unknown
Speed
Unknown
Apparent Right ascension
Unknown
Apparent Declination
Unknown
Sunlit
N/A
Visualization observer readout
Local Sidereal Time
21:40:10
Azimuth
Unknown
Elevation
Unknown
Doppler factor
Unknown
Orbital elements
Apogee altitude
471.555 km
Perigee altitude
470.347 km
Semi-major axis
6,849.088 km
Eccentricity
0.00009
Inclination
53.1595°
RAAN
307.3148°
Arg. of periapsis
84.3003°
True anomaly
275.79974°
Mean anomaly
275.8098°
Eccentric anomaly
275.80477°
Mean motion
3.82908 °/min
Orbital period
94.02 mins
BSTAR
0.00011299
Loading maneuver chart data...
Computing Atmospheric mass density...

Documentation

Showing up to 5 results
|